Regional Weather Roundup
Issued by NWS Green Bay, WI

Home | Current Version | Previous Version | Text Only | Print | Product List | Glossary On
Versions: 1 2 3 4 5 6 7 8 9 10 11 12 13 14 15 16 17 18 19 20 21 22 23 24 25 26 27 28 29 30 31 32 33 34 35 36 37 38 39 40 41 42 43 44 45 46 47 48 49 50
585
ASUS43 KGRB 131200
RWRGRB

NORTH-CENTRAL AND NORTHEAST WISCONSIN REGIONAL WEATHER ROUNDUP
NATIONAL WEATHER SERVICE GREEN BAY WI
600 AM CST SAT FEB 13 2016

WIZ005-009-010>012-018-019-131300-
NORTH CENTRAL WISCONSIN

CITY           SKY/WX    TMP DP  RH WIND       PRES   REMARKS
IRONWOOD       CLOUDY     0  -6  78 W14       30.45R WCI -19
MANITOWISH WTR NOT AVBL
ARBOR VITAE    NOT AVBL
EAGLE RIVER    NOT AVBL
LAND O LAKES   NOT AVBL
RHINELANDER    CLOUDY    -9 -15  75 W9        30.42R WCI -26
PHILLIPS       NOT AVBL
ANTIGO         NOT AVBL
TOMAHAWK       NOT AVBL
MERRILL        NOT AVBL
$$

WIZ013-073-131300-
NORTHEAST WISCONSIN

CITY           SKY/WX    TMP DP  RH WIND       PRES   REMARKS
IRON MOUNTAIN  PTCLDY   -11 -16  78 NW3       30.40R
MARINETTE      CLEAR     -6 -11  77 NW5       30.47S WCI -17
$$

WIZ017-030-035>037-045-131300-
CENTRAL WISCONSIN

CITY           SKY/WX    TMP DP  RH WIND       PRES   REMARKS
MEDFORD        NOT AVBL
WAUSAU         CLOUDY    -7 -14  71 NW6       30.49R WCI -20
MOSINEE        CLEAR     -8 -15  71 W9        30.51R WCI -25
MARSHFIELD     CLOUDY    -9 -20  58 NW12      30.50S WCI -28
WISC RAPIDS    CLOUDY    -7 -18  59 NW7       30.56R WCI -21
STEVENS POINT  NOT AVBL
WAUPACA        NOT AVBL
SHAWANO        NOT AVBL
CLINTONVILLE   NOT AVBL
WAUTOMA        NOT AVBL
$$

WIZ038-039-048-051-131300-
FOX VALLEY

CITY           SKY/WX    TMP DP  RH WIND       PRES   REMARKS
NWS GREEN BAY  PTCLDY    -5 -13  68 W10       30.51R WCI -23
APPLETON       CLEAR     -6 -17  59 W12       30.49R WCI -24
OSHKOSH        CLEAR     -5 -16  59 W8        30.52S WCI -20
FOND DU LAC    PTCLDY    -4 -15  59 NW14      30.52R WCI -24
$$

WIZ022-050-052-131300-
EAST CENTRAL WISCONSIN

CITY           SKY/WX    TMP DP  RH WIND       PRES   REMARKS
EPHRAIM        NOT AVBL
STURGEON BAY   CLEAR     -4 -11  71 W13       30.47S WCI -23
MANITOWOC      NOT AVBL
SHEBOYGAN      CLEAR     -2 -13  59 NW13      30.50R WCI -20
$$

LMZ563-521-522-541>543-131300-
LAKESHORE

STATION/POSITION TIME  TEMP    WIND        PRES    VSBY  WAVE
                       AIR SEA DIR/SP/G                  HT/PER
                 (UTC) (F)     (DEG/KT/KT) (MB)    (MI)  (FT/S)
SHEBOYGAN LKSHOR 1100    0     290/ 14/ 17 1034.8R
KEWAUNEE LKSHORE 1100   -2     300/  9/ 13 1031.2R
CHAMBERS ISLAND  1100   -1     280/  7/ 14 1031.2R
MENOMINEE LKSHOR 1100   -3     260/  9     1031.0R
$$




USA.gov is the U.S. government's official web portal to all federal, state and local government web resources and services.